Location: Radomski Observatory
(40.2854°N, 79.5145°W)
Time: 11:31:29
(UTC-04:00)

Cosmos 1072 Rocket - Visible Passes

Search period start: 06 May 2015 00:00
Search period end: 16 May 2015 00:00
Orbit: 948 x 1009 km, 82.9° (Epoch: 05 May)

Date Brightness Start Highest point End Pass type
(mag) Time Alt. Az. Time Alt. Az. Time Alt. Az.
07 May 7.2 05:14:58 10° ESE 05:18:24 16° E 05:22:09 10° NE visible
10 May 7.2 04:49:17 10° ESE 04:52:14 15° E 04:55:34 10° NE visible
11 May 6.6 05:13:20 10° SE 05:18:18 28° E 05:23:27 10° NNE visible
13 May 7.2 04:23:43 10° ESE 04:26:06 13° E 04:28:52 10° NE visible
14 May 6.6 04:47:22 10° SE 04:52:08 25° E 04:57:05 10° NNE visible
15 May 5.5 05:12:31 10° SSE 05:18:17 47° E 05:24:11 10° NNE visible
